Location: Ar Ranvel
(48.3000°N, 4.8833°W)
Time: 10:40:29
(UTC+00:00)

SPOT 5 - Pass Details

Date: 16 June 2021
Orbit: 622 x 815 km, 98.2° (Epoch: 28 July)

Event Time Altitude Azimuth Distance (km) Brightness Sun altitude
Exits shadow 22:32:18 13° 195° (SSW) 2,144 4.9 -14.3°
Maximum altitude 22:36:36 40° 262° (W) 1,113 4.0 -14.6°
Drops below altitude 10° 22:41:17 10° 332° (NNW) 2,251 6.8 -15.0°
Sets 22:43:39 0° 340° (NNW) 3,146 8.1 -15.1°
